,,,PA_Meas_PMT16A,,PR_Meas_QMR101_102,,RH_Meas_QMH101,,SR_Meas_QMS101,,TA_Meas_QMH101,,GenWind,,GenWind,
date,time,status,PA,status,PR,status,RH,status,SR,status,TA,status,DirAvg,status,SpdAvg,
2010-08-26, 00:00:04,VALID,1002.32,VALID,0,VALID,91.8225,VALID,0,VALID,22.9581,VALID,143,VALID,0,
2010-08-26, 00:01:04,VALID,1002.32,VALID,0,VALID,91.8377,VALID,0,VALID,22.9793,VALID,143,VALID,0,
2010-08-26, 00:02:04,VALID,1002.33,VALID,0,VALID,91.8072,VALID,0,VALID,22.9598,VALID,143,VALID,0,
2010-08-26, 00:03:04,VALID,1002.32,VALID,0,VALID,91.8377,VALID,0,VALID,22.9385,VALID,143,VALID,0,
2010-08-26, 00:04:04,VALID,1002.34,VALID,0,VALID,91.8683,VALID,0,VALID,22.919,VALID,143,VALID,0,
2010-08-26, 00:05:04,VALID,1002.34,VALID,0,VALID,91.853,VALID,0,VALID,22.9598,VALID,143,VALID,0,
2010-08-26, 00:06:04,VALID,1002.33,VALID,0,VALID,91.8072,VALID,0,VALID,22.8995,VALID,136,VALID,0,
2010-08-26, 00:07:04,VALID,1002.29,VALID,0,VALID,91.8301,VALID,0,VALID,22.9208,VALID,134,VALID,0,
2010-08-26, 00:08:04,VALID,1002.3,VALID,0,VALID,91.8683,VALID,0,VALID,22.8995,VALID,134,VALID,0,
2010-08-26, 00:09:04,VALID,1002.27,VALID,0,VALID,91.8759,VALID,0,VALID,22.88,VALID,134,VALID,0,
2010-08-26, 00:10:04,VALID,1002.26,VALID,0,VALID,91.8759,VALID,0,VALID,22.9013,VALID,134,VALID,0,
2010-08-26, 00:11:04,VALID,1002.24,VALID,0,VALID,91.8759,VALID,0,VALID,22.841,VALID,134,VALID,0,
2010-08-26, 00:12:04,VALID,1002.21,VALID,0,VALID,91.853,VALID,0,VALID,22.8427,VALID,134,VALID,0,
2010-08-26, 00:13:04,VALID,1002.2,VALID,0,VALID,91.6394,VALID,0,VALID,22.7825,VALID,134,VALID,0,
2010-08-26, 00:14:04,VALID,1002.2,VALID,0,VALID,91.6241,VALID,0.112286,VALID,22.763,VALID,134,VALID,0,
2010-08-26, 00:15:04,VALID,1002.16,VALID,0,VALID,91.8301,VALID,0,VALID,22.8037,VALID,134,VALID,0,
2010-08-26, 00:16:04,VALID,1002.17,VALID,0,VALID,91.8911,VALID,0,VALID,22.763,VALID,134,VALID,0,
2010-08-26, 00:17:04,VALID,1002.12,VALID,0,VALID,91.8606,VALID,0,VALID,22.7452,VALID,134,VALID,0,
2010-08-26, 00:18:04,VALID,1002.13,VALID,0,VALID,91.9369,VALID,0,VALID,22.724,VALID,134,VALID,0,
2010-08-26, 00:19:04,VALID,1002.09,VALID,0,VALID,91.998,VALID,0,VALID,22.685,VALID,134,VALID,0,
2010-08-26, 00:20:04,VALID,1002.06,VALID,0,VALID,92.0056,VALID,0,VALID,22.6867,VALID,134,VALID,0,
2010-08-26, 00:21:04,VALID,1002.06,VALID,0,VALID,91.9674,VALID,0,VALID,22.6264,VALID,134,VALID,0,
2010-08-26, 00:22:04,VALID,1002.06,VALID,0,VALID,91.9674,VALID,0,VALID,22.6069,VALID,134,VALID,0,
2010-08-26, 00:23:04,VALID,1002.04,VALID,0,VALID,92.0971,VALID,0,VALID,22.6087,VALID,134,VALID,0,
2010-08-26, 00:24:04,VALID,1002.04,VALID,0,VALID,92.2116,VALID,0,VALID,22.6087,VALID,134,VALID,0,
2010-08-26, 00:25:04,VALID,1002.06,VALID,0,VALID,92.3108,VALID,0,VALID,22.5679,VALID,134,VALID,0,
2010-08-26, 00:26:04,VALID,1002.05,VALID,0,VALID,92.3642,VALID,0.112286,VALID,22.6087,VALID,134,VALID,0,
2010-08-26, 00:27:04,VALID,1002.01,VALID,0,VALID,92.4176,VALID,0,VALID,22.5696,VALID,134,VALID,0,
2010-08-26, 00:28:04,VALID,1002.03,VALID,0,VALID,92.4405,VALID,0,VALID,22.5289,VALID,134,VALID,0,
2010-08-26, 00:29:04,VALID,1002.01,VALID,0,VALID,92.4481,VALID,0.112286,VALID,22.5484,VALID,134,VALID,0,
2010-08-26, 00:30:04,VALID,1001.99,VALID,0,VALID,92.3566,VALID,0,VALID,22.5484,VALID,128,VALID,0,
2010-08-26, 00:31:04,VALID,1001.93,VALID,0,VALID,92.1887,VALID,0,VALID,22.5696,VALID,128,VALID,0,
2010-08-26, 00:32:04,VALID,1001.93,VALID,0,VALID,91.8911,VALID,0,VALID,22.5679,VALID,128,VALID,0,
2010-08-26, 00:33:04,VALID,1001.9,VALID,0,VALID,91.7233,VALID,0,VALID,22.6282,VALID,128,VALID,0,
2010-08-26, 00:34:04,VALID,1001.92,VALID,0,VALID,91.5173,VALID,0,VALID,22.6282,VALID,128,VALID,0,
2010-08-26, 00:35:04,VALID,1001.92,VALID,0,VALID,91.3571,VALID,0,VALID,22.5874,VALID,127,VALID,0,
2010-08-26, 00:36:04,VALID,1001.94,VALID,0,VALID,91.296,VALID,0,VALID,22.5696,VALID,127,VALID,0,
2010-08-26, 00:37:04,VALID,1001.91,VALID,0,VALID,91.3876,VALID,0,VALID,22.5696,VALID,126,VALID,0,
2010-08-26, 00:38:04,VALID,1001.9,VALID,0,VALID,91.586,VALID,0,VALID,22.5501,VALID,124,VALID,0,
2010-08-26, 00:39:04,VALID,1001.88,VALID,0,VALID,91.8225,VALID,0,VALID,22.5909,VALID,99,VALID,0,
2010-08-26, 00:40:04,VALID,1001.87,VALID,0,VALID,91.8988,VALID,0,VALID,22.5696,VALID,90,VALID,0,
2010-08-26, 00:41:04,VALID,1001.83,VALID,0,VALID,91.9751,VALID,0,VALID,22.5892,VALID,82,VALID,0,
2010-08-26, 00:42:04,VALID,1001.82,VALID,0,VALID,92.0666,VALID,0,VALID,22.5892,VALID,81,VALID,0,
2010-08-26, 00:43:04,VALID,1001.82,VALID,0,VALID,91.9751,VALID,0,VALID,22.5696,VALID,81,VALID,0,
2010-08-26, 00:44:04,VALID,1001.82,VALID,0,VALID,91.9598,VALID,0,VALID,22.5501,VALID,63,VALID,0,
2010-08-26, 00:45:04,VALID,1001.81,VALID,0,VALID,91.9445,VALID,0,VALID,22.5501,VALID,63,VALID,0,
2010-08-26, 00:46:04,VALID,1001.79,VALID,0,VALID,91.9064,VALID,0,VALID,22.5306,VALID,61,VALID,0,
2010-08-26, 00:47:04,VALID,1001.78,VALID,0,VALID,91.7767,VALID,0,VALID,22.5111,VALID,59,VALID,0,
2010-08-26, 00:48:04,VALID,1001.77,VALID,0,VALID,91.7843,VALID,0,VALID,22.4916,VALID,53,VALID,0,
2010-08-26, 00:49:04,VALID,1001.76,VALID,0,VALID,91.8911,VALID,0,VALID,22.4916,VALID,50,VALID,0,
2010-08-26, 00:50:04,VALID,1001.73,VALID,0,VALID,91.8911,VALID,0,VALID,22.4721,VALID,50,VALID,0,
2010-08-26, 00:51:04,VALID,1001.69,VALID,0,VALID,91.998,VALID,0,VALID,22.4721,VALID,50,VALID,0,
2010-08-26, 00:52:04,VALID,1001.68,VALID,0,VALID,92.1353,VALID,0,VALID,22.4916,VALID,50,VALID,0,
2010-08-26, 00:53:04,VALID,1001.69,VALID,0,VALID,92.0819,VALID,0,VALID,22.4721,VALID,50,VALID,0,
2010-08-26, 00:54:04,VALID,1001.67,VALID,0,VALID,92.0895,VALID,0,VALID,22.4526,VALID,50,VALID,0,
2010-08-26, 00:55:04,VALID,1001.65,VALID,0,VALID,92.1277,VALID,0,VALID,22.4136,VALID,50,VALID,0,
2010-08-26, 00:56:04,VALID,1001.67,VALID,0,VALID,92.2803,VALID,0,VALID,22.4331,VALID,50,VALID,0,
2010-08-26, 00:57:04,VALID,1001.65,VALID,0,VALID,92.41,VALID,0,VALID,22.4331,VALID,50,VALID,0,
2010-08-26, 00:58:04,VALID,1001.61,VALID,0,VALID,92.5397,VALID,0,VALID,22.4331,VALID,50,VALID,0,
2010-08-26, 00:59:04,VALID,1001.64,VALID,0,VALID,92.5931,VALID,0,VALID,22.4136,VALID,50,VALID,0,
2010-08-26, 01:00:04,VALID,1001.63,VALID,0,VALID,92.6083,VALID,0,VALID,22.3746,VALID,50,VALID,0,
2010-08-26, 01:01:04,VALID,1001.67,VALID,0,VALID,92.6388,VALID,0,VALID,22.3356,VALID,50,VALID,0,
2010-08-26, 01:02:04,VALID,1001.67,VALID,0,VALID,92.677,VALID,0,VALID,22.3161,VALID,50,VALID,0,
2010-08-26, 01:03:04,VALID,1001.66,VALID,0,VALID,92.738,VALID,0,VALID,22.3161,VALID,50,VALID,0,
2010-08-26, 01:04:04,VALID,1001.69,VALID,0,VALID,92.7685,VALID,0,VALID,22.2966,VALID,50,VALID,0,
2010-08-26, 01:05:04,VALID,1001.7,VALID,0,VALID,92.7914,VALID,0,VALID,22.2771,VALID,50,VALID,0,
2010-08-26, 01:06:04,VALID,1001.7,VALID,0,VALID,92.9211,VALID,0,VALID,22.2966,VALID,107,VALID,0,
2010-08-26, 01:07:04,VALID,1001.7,VALID,0,VALID,93.0127,VALID,0,VALID,22.3356,VALID,138,VALID,0,
2010-08-26, 01:08:04,VALID,1001.7,VALID,0,VALID,92.9898,VALID,0,VALID,22.3161,VALID,148,VALID,0,
2010-08-26, 01:09:04,VALID,1001.68,VALID,0,VALID,92.8754,VALID,0,VALID,22.3161,VALID,148,VALID,0,
2010-08-26, 01:10:04,VALID,1001.67,VALID,0,VALID,92.5778,VALID,0,VALID,22.3551,VALID,141,VALID,0,
2010-08-26, 01:11:04,VALID,1001.67,VALID,0,VALID,92.12,VALID,0,VALID,22.3746,VALID,141,VALID,0,
2010-08-26, 01:12:04,VALID,1001.66,VALID,0,VALID,91.647,VALID,0,VALID,22.4136,VALID,141,VALID,0,
2010-08-26, 01:13:04,VALID,1001.65,VALID,0,VALID,91.3189,VALID,0,VALID,22.4136,VALID,141,VALID,0,
2010-08-26, 01:14:04,VALID,1001.65,VALID,0,VALID,91.1206,VALID,0,VALID,22.4119,VALID,140,VALID,0,
2010-08-26, 01:15:04,VALID,1001.62,VALID,0,VALID,90.8459,VALID,0,VALID,22.4331,VALID,138,VALID,0,
2010-08-26, 01:16:04,VALID,1001.6,VALID,0,VALID,90.8764,VALID,0,VALID,22.4331,VALID,137,VALID,0,
2010-08-26, 01:17:04,VALID,1001.57,VALID,0,VALID,90.8993,VALID,0,VALID,22.4331,VALID,137,VALID,0,
2010-08-26, 01:18:04,VALID,1001.58,VALID,0,VALID,90.9985,VALID,0,VALID,22.4136,VALID,137,VALID,0,
2010-08-26, 01:19:04,VALID,1001.6,VALID,0,VALID,90.9909,VALID,0,VALID,22.4136,VALID,137,VALID,0,
2010-08-26, 01:20:04,VALID,1001.51,VALID,0,VALID,90.8383,VALID,0,VALID,22.3746,VALID,137,VALID,0,
2010-08-26, 01:21:04,VALID,1001.53,VALID,0,VALID,90.6475,VALID,0,VALID,22.3551,VALID,137,VALID,0,
2010-08-26, 01:22:04,VALID,1001.52,VALID,0,VALID,90.7085,VALID,0,VALID,22.3161,VALID,128,VALID,0,
2010-08-26, 01:23:04,VALID,1001.52,VALID,0,VALID,90.5636,VALID,0,VALID,22.3161,VALID,127,VALID,0,
2010-08-26, 01:24:04,VALID,1001.52,VALID,0,VALID,90.6551,VALID,0,VALID,22.2576,VALID,117,VALID,0,
2010-08-26, 01:25:04,VALID,1001.5,VALID,0,VALID,90.762,VALID,0,VALID,22.2381,VALID,114,VALID,0,
2010-08-26, 01:26:04,VALID,1001.49,VALID,0,VALID,90.8154,VALID,0,VALID,22.2186,VALID,114,VALID,0,
2010-08-26, 01:27:04,VALID,1001.47,VALID,0,VALID,91.09,VALID,0,VALID,22.199,VALID,113,VALID,0,
2010-08-26, 01:28:04,VALID,1001.47,VALID,0,VALID,91.1968,VALID,0,VALID,22.1795,VALID,108,VALID,0,
2010-08-26, 01:29:04,VALID,1001.46,VALID,0,VALID,91.3418,VALID,0,VALID,22.16,VALID,108,VALID,0,
2010-08-26, 01:30:04,VALID,1001.46,VALID,0,VALID,91.4944,VALID,0,VALID,22.1405,VALID,108,VALID,0,
2010-08-26, 01:31:04,VALID,1001.43,VALID,0,VALID,91.5554,VALID,0,VALID,22.121,VALID,108,VALID,0,
2010-08-26, 01:32:04,VALID,1001.44,VALID,0,VALID,91.6623,VALID,0,VALID,22.1015,VALID,113,VALID,0,
2010-08-26, 01:33:05,VALID,1001.42,VALID,0,VALID,91.8683,VALID,0,VALID,22.121,VALID,119,VALID,0,
2010-08-26, 01:34:05,VALID,1001.43,VALID,0,VALID,91.998,VALID,0,VALID,22.121,VALID,126,VALID,0,
2010-08-26, 01:35:05,VALID,1001.4,VALID,0,VALID,91.9674,VALID,0,VALID,22.121,VALID,126,VALID,0,
2010-08-26, 01:36:05,VALID,1001.38,VALID,0,VALID,91.8911,VALID,0,VALID,22.121,VALID,126,VALID,0,
2010-08-26, 01:37:05,VALID,1001.4,VALID,0,VALID,91.8377,VALID,0,VALID,22.1015,VALID,126,VALID,0,
2010-08-26, 01:38:05,VALID,1001.39,VALID,0,VALID,91.792,VALID,0,VALID,22.0803,VALID,126,VALID,0,
2010-08-26, 01:39:05,VALID,1001.36,VALID,0,VALID,91.7996,VALID,0,VALID,22.1015,VALID,126,VALID,0,
2010-08-26, 01:40:05,VALID,1001.3,VALID,0,VALID,91.8301,VALID,0,VALID,22.1015,VALID,126,VALID,0,
2010-08-26, 01:41:05,VALID,1001.3,VALID,0,VALID,91.7843,VALID,0,VALID,22.1015,VALID,131,VALID,0,
2010-08-26, 01:42:05,VALID,1001.34,VALID,0,VALID,91.6317,VALID,0,VALID,22.1015,VALID,155,VALID,0,
2010-08-26, 01:43:05,VALID,1001.33,VALID,0,VALID,91.4791,VALID,0,VALID,22.1015,VALID,155,VALID,0,
2010-08-26, 01:44:05,VALID,1001.31,VALID,0,VALID,91.4257,VALID,0,VALID,22.1015,VALID,155,VALID,0,
2010-08-26, 01:45:05,VALID,1001.33,VALID,0,VALID,91.2426,VALID,0,VALID,22.1405,VALID,152,VALID,0,
2010-08-26, 01:46:05,VALID,1001.34,VALID,0,VALID,90.9832,VALID,0,VALID,22.1617,VALID,152,VALID,0,
2010-08-26, 01:47:05,VALID,1001.34,VALID,0,VALID,90.9146,VALID,0,VALID,22.1617,VALID,152,VALID,0,
2010-08-26, 01:48:05,VALID,1001.33,VALID,0,VALID,91.029,VALID,0,VALID,22.16,VALID,152,VALID,0,
2010-08-26, 01:49:05,VALID,1001.32,VALID,0,VALID,90.9298,VALID,0,VALID,22.1795,VALID,152,VALID,0,
2010-08-26, 01:50:05,VALID,1001.31,VALID,0,VALID,90.8383,VALID,0,VALID,22.1405,VALID,152,VALID,0,
2010-08-26, 01:51:05,VALID,1001.27,VALID,0,VALID,90.9146,VALID,0,VALID,22.121,VALID,152,VALID,0,
2010-08-26, 01:52:05,VALID,1001.26,VALID,0,VALID,91.029,VALID,0,VALID,22.121,VALID,152,VALID,0,
2010-08-26, 01:53:05,VALID,1001.24,VALID,0,VALID,91.09,VALID,0,VALID,22.121,VALID,152,VALID,0,
2010-08-26, 01:54:05,VALID,1001.22,VALID,0,VALID,91.0671,VALID,0,VALID,22.121,VALID,152,VALID,0,
2010-08-26, 01:55:05,VALID,1001.2,VALID,0,VALID,90.9603,VALID,0,VALID,22.121,VALID,152,VALID,0,
2010-08-26, 01:56:05,VALID,1001.18,VALID,0,VALID,90.6933,VALID,0,VALID,22.121,VALID,142,VALID,0,
2010-08-26, 01:57:05,VALID,1001.2,VALID,0,VALID,90.2584,VALID,0,VALID,22.1584,VALID,142,VALID,0,
2010-08-26, 01:58:05,VALID,1001.18,VALID,0,VALID,89.8464,VALID,0,VALID,22.1779,VALID,142,VALID,0,
2010-08-26, 01:59:05,VALID,1001.16,VALID,0,VALID,89.6862,VALID,0,VALID,22.1974,VALID,129,VALID,0,
2010-08-26, 02:00:05,VALID,1001.14,VALID,0,VALID,89.7091,VALID,0,VALID,22.2576,VALID,118,VALID,0,
2010-08-26, 02:01:05,VALID,1001.13,VALID,0,VALID,89.4573,VALID,0,VALID,22.2966,VALID,111,VALID,0,
2010-08-26, 02:02:05,VALID,1001.12,VALID,0,VALID,89.2666,VALID,0,VALID,22.3356,VALID,110,VALID,0,
2010-08-26, 02:03:05,VALID,1001.09,VALID,0,VALID,89.114,VALID,0,VALID,22.2966,VALID,107,VALID,0,
2010-08-26, 02:04:05,VALID,1001.09,VALID,0,VALID,89.2742,VALID,0,VALID,22.2576,VALID,106,VALID,0,
2010-08-26, 02:05:05,VALID,1001.07,VALID,0,VALID,89.6404,VALID,0,VALID,22.2381,VALID,106,VALID,0,
2010-08-26, 02:06:05,VALID,1001.05,VALID,0,VALID,89.8159,VALID,0,VALID,22.2414,VALID,106,VALID,0,
2010-08-26, 02:07:05,VALID,1001.03,VALID,0,VALID,89.9761,VALID,0,VALID,22.1795,VALID,106,VALID,0,
2010-08-26, 02:08:05,VALID,1001.05,VALID,0,VALID,90.1287,VALID,0,VALID,22.1812,VALID,106,VALID,0,
2010-08-26, 02:09:05,VALID,1001.08,VALID,0,VALID,90.2889,VALID,0,VALID,22.1812,VALID,106,VALID,0,
2010-08-26, 02:10:05,VALID,1001.07,VALID,0,VALID,90.3652,VALID,0,VALID,22.1617,VALID,106,VALID,0,
2010-08-26, 02:11:05,VALID,1001.05,VALID,0,VALID,90.3805,VALID,0,VALID,22.1617,VALID,106,VALID,0,
2010-08-26, 02:12:05,VALID,1001.06,VALID,0,VALID,90.4186,VALID,0,VALID,22.1617,VALID,106,VALID,0,
2010-08-26, 02:13:05,VALID,1001.09,VALID,0,VALID,90.4263,VALID,0,VALID,22.1617,VALID,111,VALID,0,
2010-08-26, 02:14:05,VALID,1001.07,VALID,0,VALID,90.4415,VALID,0,VALID,22.1812,VALID,111,VALID,0,
2010-08-26, 02:15:05,VALID,1001.06,VALID,0,VALID,90.4491,VALID,0,VALID,22.2007,VALID,134,VALID,0,
2010-08-26, 02:16:05,VALID,1001.11,VALID,0,VALID,90.4491,VALID,0,VALID,22.2202,VALID,134,VALID,0,
2010-08-26, 02:17:05,VALID,1001.15,VALID,0,VALID,90.3423,VALID,0,VALID,22.2414,VALID,136,VALID,0,
2010-08-26, 02:18:05,VALID,1001.16,VALID,0,VALID,90.4263,VALID,0,VALID,22.2202,VALID,151,VALID,0,
2010-08-26, 02:19:05,VALID,1001.11,VALID,0,VALID,90.5331,VALID,0,VALID,22.2219,VALID,151,VALID,0,
2010-08-26, 02:20:05,VALID,1001.15,VALID,0,VALID,90.5712,VALID,0,VALID,22.2007,VALID,151,VALID,0,
2010-08-26, 02:21:05,VALID,1001.14,VALID,0,VALID,90.617,VALID,0,VALID,22.1779,VALID,151,VALID,0,
2010-08-26, 02:22:05,VALID,1001.11,VALID,0,VALID,90.7543,VALID,0,VALID,22.1795,VALID,150,VALID,0,
2010-08-26, 02:23:05,VALID,1001.12,VALID,0,VALID,90.8688,VALID,0,VALID,22.16,VALID,151,VALID,0,
2010-08-26, 02:24:05,VALID,1001.09,VALID,0,VALID,91.0519,VALID,0,VALID,22.1405,VALID,150,VALID,0,
2010-08-26, 02:25:05,VALID,1001.1,VALID,0,VALID,91.0443,VALID,0,VALID,22.121,VALID,150,VALID,0,
2010-08-26, 02:26:05,VALID,1001.12,VALID,0,VALID,90.9298,VALID,0,VALID,22.0625,VALID,151,VALID,0,
2010-08-26, 02:27:05,VALID,1001.11,VALID,0,VALID,91.1358,VALID,0,VALID,22.0625,VALID,150,VALID,0,
2010-08-26, 02:28:05,VALID,1001.12,VALID,0,VALID,91.2045,VALID,0,VALID,22.0235,VALID,150,VALID,0,
2010-08-26, 02:29:05,VALID,1001.16,VALID,0,VALID,91.3723,VALID,0,VALID,22.0235,VALID,150,VALID,0,
2010-08-26, 02:30:05,VALID,1001.15,VALID,0,VALID,91.3189,VALID,0,VALID,21.9845,VALID,151,VALID,0,
2010-08-26, 02:31:05,VALID,1001.15,VALID,0,VALID,91.3494,VALID,0,VALID,21.9472,VALID,151,VALID,0,
2010-08-26, 02:32:05,VALID,1001.16,VALID,0,VALID,91.4105,VALID,0,VALID,21.9065,VALID,151,VALID,0,
2010-08-26, 02:33:05,VALID,1001.14,VALID,0,VALID,91.4563,VALID,0,VALID,21.8675,VALID,151,VALID,0,
2010-08-26, 02:34:05,VALID,1001.11,VALID,0,VALID,91.647,VALID,0,VALID,21.848,VALID,151,VALID,0,
2010-08-26, 02:35:05,VALID,1001.09,VALID,0,VALID,91.8072,VALID,0,VALID,21.8285,VALID,151,VALID,0,
2010-08-26, 02:36:05,VALID,1001.1,VALID,0,VALID,91.9445,VALID,0,VALID,21.809,VALID,151,VALID,0,
2010-08-26, 02:37:05,VALID,1001.1,VALID,0,VALID,92.0971,VALID,0,VALID,21.809,VALID,151,VALID,0,
2010-08-26, 02:38:05,VALID,1001.08,VALID,0,VALID,92.2421,VALID,0,VALID,21.8285,VALID,151,VALID,0,
2010-08-26, 02:39:05,VALID,1001.09,VALID,0,VALID,92.326,VALID,0,VALID,21.8285,VALID,151,VALID,0,
2010-08-26, 02:40:05,VALID,1001.09,VALID,0,VALID,92.2803,VALID,0,VALID,21.809,VALID,151,VALID,0,
2010-08-26, 02:41:05,VALID,1001.09,VALID,0,VALID,92.2879,VALID,0,VALID,21.8285,VALID,151,VALID,0,
2010-08-26, 02:42:05,VALID,1001.1,VALID,0,VALID,92.3489,VALID,0,VALID,21.848,VALID,151,VALID,0,
2010-08-26, 02:43:05,VALID,1001.1,VALID,0,VALID,92.3794,VALID,0,VALID,21.8285,VALID,151,VALID,0,
2010-08-26, 02:44:05,VALID,1001.11,VALID,0,VALID,92.3947,VALID,0,VALID,21.809,VALID,151,VALID,0,
2010-08-26, 02:45:05,VALID,1001.1,VALID,0,VALID,92.4405,VALID,0,VALID,21.809,VALID,151,VALID,0,
2010-08-26, 02:46:05,VALID,1001.09,VALID,0,VALID,92.532,VALID,0,VALID,21.809,VALID,151,VALID,0,
2010-08-26, 02:47:05,VALID,1001.08,VALID,0,VALID,92.4634,VALID,0,VALID,21.77,VALID,151,VALID,0,
2010-08-26, 02:48:05,VALID,1001.09,VALID,0,VALID,92.5091,VALID,0,VALID,21.809,VALID,145,VALID,0,
2010-08-26, 02:49:05,VALID,1001.1,VALID,0,VALID,92.5626,VALID,0,VALID,21.8675,VALID,145,VALID,0,
2010-08-26, 02:50:05,VALID,1001.14,VALID,0,VALID,92.4634,VALID,0,VALID,21.9065,VALID,140,VALID,0,
2010-08-26, 02:51:05,VALID,1001.12,VALID,0,VALID,92.2879,VALID,0,VALID,21.9455,VALID,137,VALID,0,
2010-08-26, 02:52:05,VALID,1001.14,VALID,0,VALID,92.0437,VALID,0,VALID,21.926,VALID,129,VALID,0,
2010-08-26, 02:53:05,VALID,1001.17,VALID,0,VALID,91.9598,VALID,0,VALID,21.9455,VALID,121,VALID,0,
2010-08-26, 02:54:05,VALID,1001.16,VALID,0,VALID,91.9827,VALID,0,VALID,21.965,VALID,121,VALID,0,
2010-08-26, 02:55:05,VALID,1001.14,VALID,0,VALID,92.0285,VALID,0,VALID,21.9455,VALID,121,VALID,0,
2010-08-26, 02:56:05,VALID,1001.12,VALID,0,VALID,92.0361,VALID,0,VALID,21.926,VALID,121,VALID,0,
2010-08-26, 02:57:05,VALID,1001.11,VALID,0,VALID,92.1124,VALID,0,VALID,21.926,VALID,121,VALID,0,
2010-08-26, 02:58:05,VALID,1001.08,VALID,0,VALID,92.1353,VALID,0,VALID,21.9065,VALID,121,VALID,0,
2010-08-26, 02:59:05,VALID,1001.08,VALID,0,VALID,92.1734,VALID,0,VALID,21.887,VALID,121,VALID,0,
2010-08-26, 03:00:05,VALID,1001.07,VALID,0,VALID,92.2497,VALID,0,VALID,21.8658,VALID,121,VALID,0,
2010-08-26, 03:01:05,VALID,1001.05,VALID,0,VALID,92.2803,VALID,0,VALID,21.887,VALID,121,VALID,0,
2010-08-26, 03:02:05,VALID,1001.04,VALID,0,VALID,92.3718,VALID,0,VALID,21.887,VALID,121,VALID,0,
2010-08-26, 03:03:05,VALID,1001.01,VALID,0,VALID,92.4481,VALID,0,VALID,21.887,VALID,121,VALID,0,
2010-08-26, 03:04:05,VALID,1001.01,VALID,0,VALID,92.471,VALID,0,VALID,21.8675,VALID,121,VALID,0,
2010-08-26, 03:05:05,VALID,1001.01,VALID,0,VALID,92.5091,VALID,0,VALID,21.848,VALID,121,VALID,0,
2010-08-26, 03:06:05,VALID,1001.01,VALID,0,VALID,92.5091,VALID,0,VALID,21.809,VALID,121,VALID,0,
2010-08-26, 03:07:05,VALID,1001.01,VALID,0,VALID,92.5397,VALID,0,VALID,21.7895,VALID,121,VALID,0,
2010-08-26, 03:08:05,VALID,1001.03,VALID,0,VALID,92.616,VALID,0,VALID,21.809,VALID,121,VALID,0,
2010-08-26, 03:09:05,VALID,1001.03,VALID,0,VALID,92.6923,VALID,0,VALID,21.809,VALID,121,VALID,0,
2010-08-26, 03:10:05,VALID,1001.04,VALID,0,VALID,92.7762,VALID,0,VALID,21.8496,VALID,121,VALID,0,
2010-08-26, 03:11:05,VALID,1001.07,VALID,0,VALID,92.8754,VALID,0,VALID,21.8496,VALID,121,VALID,0,
2010-08-26, 03:12:05,VALID,1001.09,VALID,0,VALID,92.8372,VALID,0,VALID,21.7895,VALID,121,VALID,0,
2010-08-26, 03:13:05,VALID,1001.06,VALID,0,VALID,92.8983,VALID,0,VALID,21.8285,VALID,110,VALID,0,
2010-08-26, 03:14:05,VALID,1001.08,VALID,0,VALID,92.7457,VALID,0,VALID,21.77,VALID,74,VALID,0,
2010-08-26, 03:15:05,VALID,1001.08,VALID,0,VALID,92.6923,VALID,0,VALID,21.7505,VALID,72,VALID,0,
2010-08-26, 03:16:05,VALID,1001.07,VALID,0,VALID,92.6007,VALID,0,VALID,21.7115,VALID,54,VALID,0,
2010-08-26, 03:17:05,VALID,1001.04,VALID,0,VALID,92.6083,VALID,0.112286,VALID,21.692,VALID,39,VALID,0,
2010-08-26, 03:18:05,VALID,1001.07,VALID,0,VALID,92.6999,VALID,0,VALID,21.7115,VALID,39,VALID,0,
2010-08-26, 03:19:05,VALID,1001.1,VALID,0,VALID,92.7609,VALID,0,VALID,21.692,VALID,10,VALID,0,
2010-08-26, 03:20:05,VALID,1001.1,VALID,0,VALID,92.7457,VALID,0,VALID,21.6725,VALID,10,VALID,0,
2010-08-26, 03:21:05,VALID,1001.12,VALID,0,VALID,92.7533,VALID,0,VALID,21.653,VALID,10,VALID,0,
2010-08-26, 03:22:05,VALID,1001.12,VALID,0,VALID,92.7838,VALID,0,VALID,21.653,VALID,318,VALID,0,
2010-08-26, 03:23:05,VALID,1001.15,VALID,0,VALID,92.883,VALID,0,VALID,21.6725,VALID,318,VALID,0,
2010-08-26, 03:24:05,VALID,1001.13,VALID,0,VALID,92.944,VALID,0,VALID,21.6513,VALID,318,VALID,0,
2010-08-26, 03:25:05,VALID,1001.15,VALID,0,VALID,93.0356,VALID,0,VALID,21.6903,VALID,318,VALID,0,
2010-08-26, 03:26:05,VALID,1001.13,VALID,0,VALID,93.1119,VALID,0,VALID,21.7115,VALID,318,VALID,0,
2010-08-26, 03:27:05,VALID,1001.13,VALID,0,VALID,93.15,VALID,0,VALID,21.731,VALID,318,VALID,0,
2010-08-26, 03:28:05,VALID,1001.12,VALID,0,VALID,93.2263,VALID,0,VALID,21.77,VALID,318,VALID,0,
2010-08-26, 03:29:05,VALID,1001.09,VALID,0,VALID,93.2568,VALID,0,VALID,21.7878,VALID,318,VALID,0,
2010-08-26, 03:30:05,VALID,1001.11,VALID,0,VALID,93.3103,VALID,0,VALID,21.7878,VALID,318,VALID,0,
2010-08-26, 03:31:05,VALID,1001.07,VALID,0,VALID,93.3103,VALID,0.112286,VALID,21.8268,VALID,318,VALID,0,
2010-08-26, 03:32:05,VALID,1001.06,VALID,0,VALID,93.3255,VALID,0,VALID,21.848,VALID,318,VALID,0,
2010-08-26, 03:33:05,VALID,1001.04,VALID,0,VALID,93.2874,VALID,0,VALID,21.8675,VALID,318,VALID,0,
2010-08-26, 03:34:05,VALID,1001.04,VALID,0,VALID,93.2797,VALID,0,VALID,21.8268,VALID,318,VALID,0,
2010-08-26, 03:35:05,VALID,1001.02,VALID,0,VALID,93.2492,VALID,0,VALID,21.8268,VALID,318,VALID,0,
2010-08-26, 03:36:05,VALID,1001.04,VALID,0,VALID,93.234,VALID,0,VALID,21.8463,VALID,318,VALID,0,
2010-08-26, 03:37:05,VALID,1001.05,VALID,0,VALID,93.2416,VALID,0,VALID,21.8675,VALID,318,VALID,0,
2010-08-26, 03:38:05,VALID,1001.03,VALID,0,VALID,93.2263,VALID,0,VALID,21.8675,VALID,318,VALID,0,
2010-08-26, 03:39:05,VALID,1001.05,VALID,0,VALID,93.2187,VALID,0,VALID,21.8268,VALID,318,VALID,0,
2010-08-26, 03:40:05,VALID,1001.04,VALID,0,VALID,93.1729,VALID,0,VALID,21.7895,VALID,318,VALID,0,
2010-08-26, 03:41:05,VALID,1001.03,VALID,0,VALID,93.1195,VALID,0,VALID,21.7505,VALID,318,VALID,0,
2010-08-26, 03:42:05,VALID,1001.04,VALID,0,VALID,93.1195,VALID,0,VALID,21.7098,VALID,318,VALID,0,
2010-08-26, 03:43:05,VALID,1001.05,VALID,0,VALID,93.089,VALID,0,VALID,21.7115,VALID,318,VALID,0,
2010-08-26, 03:44:05,VALID,1001.05,VALID,0,VALID,93.089,VALID,0,VALID,21.6725,VALID,318,VALID,0,
2010-08-26, 03:45:05,VALID,1001.04,VALID,0,VALID,93.089,VALID,0,VALID,21.6725,VALID,318,VALID,0,
2010-08-26, 03:46:05,VALID,1001.04,VALID,0,VALID,93.1043,VALID,0.112286,VALID,21.6725,VALID,318,VALID,0,
2010-08-26, 03:47:05,VALID,1001.04,VALID,0,VALID,93.1653,VALID,0,VALID,21.6903,VALID,318,VALID,0,
2010-08-26, 03:48:05,VALID,1001.06,VALID,0,VALID,93.2111,VALID,0,VALID,21.7098,VALID,318,VALID,0,
2010-08-26, 03:49:05,VALID,1001.05,VALID,0,VALID,93.2568,VALID,0,VALID,21.7293,VALID,318,VALID,0,
2010-08-26, 03:50:05,VALID,1001.07,VALID,0,VALID,93.295,VALID,0,VALID,21.77,VALID,318,VALID,0,
2010-08-26, 03:51:05,VALID,1001.09,VALID,0,VALID,93.3255,VALID,0,VALID,21.7505,VALID,318,VALID,0,
2010-08-26, 03:52:05,VALID,1001.09,VALID,0,VALID,93.3789,VALID,0,VALID,21.77,VALID,318,VALID,0,
2010-08-26, 03:53:05,VALID,1001.11,VALID,0,VALID,93.4171,VALID,0,VALID,21.7895,VALID,318,VALID,0,
2010-08-26, 03:54:05,VALID,1001.11,VALID,0,VALID,93.4323,VALID,0.112286,VALID,21.7878,VALID,318,VALID,0,
2010-08-26, 03:55:05,VALID,1001.11,VALID,0,VALID,93.4628,VALID,0,VALID,21.809,VALID,318,VALID,0,
2010-08-26, 03:56:05,VALID,1001.12,VALID,0,VALID,93.4705,VALID,0,VALID,21.7878,VALID,318,VALID,0,
2010-08-26, 03:57:05,VALID,1001.13,VALID,0,VALID,93.501,VALID,0,VALID,21.8073,VALID,318,VALID,0,
2010-08-26, 03:58:05,VALID,1001.14,VALID,0,VALID,93.5239,VALID,0,VALID,21.8268,VALID,318,VALID,0,
2010-08-26, 03:59:05,VALID,1001.14,VALID,0,VALID,93.5315,VALID,0,VALID,21.848,VALID,318,VALID,0,
2010-08-26, 04:00:05,VALID,1001.15,VALID,0,VALID,93.5391,VALID,0,VALID,21.8463,VALID,318,VALID,0,